Location: Bremen
(53.0793°N, 8.8017°E)
Time: 07:26:19
(UTC+01:00)

Vanguard 1 Rocket - All Passes

Search period start: 03 December 2021 00:00
Search period end: 13 December 2021 00:00
Orbit: 650 x 4226 km, 34.3° (Epoch: 02 December)

Date Brightness Start Highest point End Pass type
(mag) Time Alt. Az. Time Alt. Az. Time Alt. Az.
03 Dec - 01:14:57 10° SSE 01:20:19 14° SE 01:27:14 10° ESE visible
03 Dec - 03:33:28 10° SW 03:44:14 35° SSE 04:01:56 10° ESE visible
03 Dec - 05:56:48 10° WSW 06:11:10 41° S 06:33:02 10° SE visible
03 Dec - 08:23:10 10° W 08:39:23 31° SSW 08:59:37 10° SSE daylight
03 Dec - 10:57:56 10° WSW 11:06:13 13° SW 11:14:49 10° SSW daylight
04 Dec - 02:24:06 10° SSW 02:32:44 26° SE 02:46:19 10° E visible
04 Dec - 04:45:58 10° SW 04:58:20 40° S 05:18:32 10° ESE visible
04 Dec - 07:10:51 10° WSW 07:26:08 36° SSW 07:47:26 10° SE visible
04 Dec - 09:40:11 10° W 09:53:47 20° SW 10:09:12 10° S daylight
05 Dec - 01:16:00 10° S 01:21:56 17° SE 01:30:04 10° ESE visible
05 Dec - 03:35:44 10° SW 03:46:06 35° SSE 04:03:29 10° ESE visible
05 Dec - 05:59:20 10° WSW 06:13:01 39° S 06:34:02 10° SE visible
05 Dec - 08:26:08 10° W 08:40:56 27° SSW 08:59:30 10° SSE daylight
06 Dec - 02:26:09 10° SSW 02:34:34 28° SSE 02:48:09 10° ESE visible
06 Dec - 04:48:28 10° WSW 05:00:17 39° S 05:19:46 10° ESE visible
06 Dec - 07:13:36 10° WSW 07:27:53 32° SSW 07:47:49 10° SSE visible
06 Dec - 09:44:40 10° WSW 09:55:09 15° SW 10:06:53 10° SSW daylight
07 Dec - 01:17:32 10° S 01:23:40 19° SE 01:32:29 10° ESE visible
07 Dec - 03:38:08 10° SW 03:48:05 35° SSE 04:04:57 10° ESE visible
07 Dec - 06:02:00 10° WSW 06:14:55 35° SSW 06:34:48 10° SE visible
07 Dec - 08:29:30 10° WSW 08:42:30 22° SW 08:58:43 10° S daylight
08 Dec - 02:28:23 10° SSW 02:36:30 29° SSE 02:49:54 10° ESE visible
08 Dec - 04:51:03 10° WSW 05:02:17 36° S 05:20:50 10° SE visible
08 Dec - 07:16:34 10° WSW 07:29:40 28° SSW 07:47:48 10° SSE visible
08 Dec - 09:52:23 10° WSW 09:56:34 11° SW 10:00:58 10° SW daylight
09 Dec - 01:19:24 10° S 01:25:33 21° SE 01:34:41 10° ESE visible
09 Dec - 03:40:39 10° SW 03:50:09 34° S 04:06:18 10° ESE visible
09 Dec - 06:04:48 10° WSW 06:16:52 32° SSW 06:35:17 10° SE visible
09 Dec - 08:33:32 10° WSW 08:44:07 17° SW 08:56:58 10° S daylight
10 Dec - 00:12:26 10° SSE 00:15:07 12° SE 00:18:17 10° ESE visible
10 Dec - 02:30:45 10° SW 02:38:34 29° SSE 02:51:32 10° ESE visible
10 Dec - 04:53:45 10° WSW 05:04:21 33° S 05:21:43 10° SE visible
10 Dec - 07:19:51 10° WSW 07:31:29 23° SSW 07:47:14 10° SSE visible
11 Dec - 01:21:31 10° SSW 01:27:34 22° SSE 01:36:43 10° ESE visible
11 Dec - 03:43:16 10° SW 03:52:17 33° S 04:07:31 10° ESE visible
11 Dec - 06:07:47 10° WSW 06:18:52 27° SSW 06:35:25 10° SSE visible
11 Dec - 08:39:18 10° WSW 08:45:48 12° SW 08:53:10 10° SSW daylight
12 Dec - 00:13:35 10° SSE 00:17:03 13° SE 00:21:23 10° ESE visible
12 Dec - 02:33:16 10° SW 02:40:44 29° SSE 02:53:05 10° ESE visible
12 Dec - 04:56:36 10° WSW 05:06:30 30° S 05:22:21 10° SE visible
12 Dec - 07:23:43 10° WSW 07:33:22 18° SSW 07:45:51 10° S visible
